Location: Albany
(35.0170°S, 117.8920°E)
Time: 18:21:17
(UTC+08:00)

SR - Pass Details

Date: 29 January 2021
Orbit: 573 x 882 km, 66.7° (Epoch: 25 February)

Event Time Altitude Azimuth Distance (km) Brightness Sun altitude
Rises 00:37:14 0° 204° (SSW) 2,854 ? -36.8°
Reaches altitude 10° 00:39:32 10° 200° (SSW) 1,926 ? -36.8°
Enters shadow 00:39:55 12° 199° (SSW) 1,776 ? -36.8°
